TimeEDT,TemperatureF,Dew PointF,Humidity,Sea Level PressureIn,VisibilityMPH,Wind Direction,Wind SpeedMPH,Gust SpeedMPH,PrecipitationIn,Events,Conditions,WindDirDegrees,DateUTC
12:15 AM,56.5,52.7,87,30.19,10.0,Calm,Calm,-,N/A,,Clear,0,2013-09-19 04:15:00
12:35 AM,56.7,52.7,87,30.18,10.0,Calm,Calm,-,N/A,,Clear,0,2013-09-19 04:35:00
12:55 AM,55.9,52.9,89,30.18,10.0,Calm,Calm,-,N/A,,Clear,0,2013-09-19 04:55:00
1:15 AM,55.8,52.9,90,30.18,10.0,Calm,Calm,-,N/A,,Clear,0,2013-09-19 05:15:00
1:35 AM,56.3,52.7,88,30.18,10.0,Calm,Calm,-,N/A,,Clear,0,2013-09-19 05:35:00
1:55 AM,56.3,53.6,91,30.17,10.0,Calm,Calm,-,N/A,,Clear,0,2013-09-19 05:55:00
2:15 AM,56.7,53.6,89,30.17,10.0,Calm,Calm,-,N/A,,Clear,0,2013-09-19 06:15:00
2:35 AM,56.7,54.0,91,30.17,10.0,Calm,Calm,-,N/A,,Clear,0,2013-09-19 06:35:00
2:55 AM,57.2,54.3,90,30.17,10.0,Calm,Calm,-,N/A,,Clear,0,2013-09-19 06:55:00
3:15 AM,56.8,54.1,91,30.16,10.0,Calm,Calm,-,N/A,,Clear,0,2013-09-19 07:15:00
3:35 AM,57.6,54.7,90,30.16,10.0,Calm,Calm,-,N/A,,Clear,0,2013-09-19 07:35:00
3:55 AM,56.3,54.3,93,30.16,10.0,Calm,Calm,-,N/A,,Clear,0,2013-09-19 07:55:00
4:15 AM,56.7,54.1,91,30.15,10.0,Calm,Calm,-,N/A,,Clear,0,2013-09-19 08:15:00
4:35 AM,56.3,54.3,93,30.15,10.0,North,3.5,-,N/A,,Clear,10,2013-09-19 08:35:00
4:55 AM,57.0,54.3,91,30.15,10.0,Calm,Calm,-,N/A,,Clear,0,2013-09-19 08:55:00
5:15 AM,57.0,54.7,92,30.16,10.0,North,3.5,-,N/A,,Clear,10,2013-09-19 09:15:00
5:35 AM,57.9,55.0,90,30.16,10.0,North,3.5,-,N/A,,Clear,10,2013-09-19 09:35:00
5:55 AM,59.7,55.0,84,30.16,10.0,NNE,4.6,-,N/A,,Clear,20,2013-09-19 09:55:00
6:15 AM,60.4,55.2,83,30.16,10.0,NNE,3.5,-,N/A,,Clear,20,2013-09-19 10:15:00
6:35 AM,60.3,54.9,82,30.17,10.0,NNE,3.5,-,N/A,,Clear,30,2013-09-19 10:35:00
6:55 AM,57.9,54.3,88,30.17,10.0,North,3.5,-,N/A,,Clear,360,2013-09-19 10:55:00
7:15 AM,57.9,55.0,90,30.17,10.0,North,3.5,-,N/A,,Clear,10,2013-09-19 11:15:00
7:35 AM,61.5,55.6,81,30.17,10.0,North,4.6,-,N/A,,Clear,360,2013-09-19 11:35:00
7:55 AM,65.1,56.8,75,30.17,10.0,North,4.6,-,N/A,,Clear,10,2013-09-19 11:55:00
8:15 AM,66.4,56.5,70,30.17,10.0,North,4.6,-,N/A,,Clear,10,2013-09-19 12:15:00
8:35 AM,67.3,56.1,67,30.17,10.0,North,5.8,-,N/A,,Clear,10,2013-09-19 12:35:00
8:55 AM,68.0,55.9,65,30.17,10.0,North,8.1,-,N/A,,Clear,10,2013-09-19 12:55:00
9:15 AM,68.9,56.7,65,30.17,10.0,NNE,6.9,-,N/A,,Clear,20,2013-09-19 13:15:00
9:35 AM,69.1,56.3,64,30.17,10.0,NE,6.9,-,N/A,,Clear,40,2013-09-19 13:35:00
9:55 AM,70.7,56.5,61,30.17,10.0,ENE,8.1,-,N/A,,Scattered Clouds,60,2013-09-19 13:55:00
10:15 AM,70.5,56.3,61,30.17,10.0,ENE,5.8,-,N/A,,Scattered Clouds,60,2013-09-19 14:15:00
10:35 AM,70.7,56.3,60,30.17,10.0,ENE,8.1,-,N/A,,Clear,70,2013-09-19 14:35:00
10:55 AM,70.9,56.3,60,30.17,10.0,NE,8.1,-,N/A,,Clear,40,2013-09-19 14:55:00
11:15 AM,71.8,56.8,59,30.17,10.0,ENE,9.2,-,N/A,,Clear,70,2013-09-19 15:15:00
11:35 AM,71.6,56.7,59,30.17,10.0,ENE,8.1,-,N/A,,Scattered Clouds,70,2013-09-19 15:35:00
11:55 AM,71.6,56.8,60,30.17,10.0,ENE,8.1,-,N/A,,Clear,70,2013-09-19 15:55:00
12:15 PM,71.4,56.8,60,30.17,10.0,East,6.9,-,N/A,,Clear,80,2013-09-19 16:15:00
12:35 PM,72.1,57.6,60,30.17,10.0,ENE,8.1,-,N/A,,Clear,60,2013-09-19 16:35:00
12:55 PM,72.9,57.9,59,30.16,10.0,ENE,10.4,-,N/A,,Clear,70,2013-09-19 16:55:00
1:15 PM,72.5,57.7,60,30.16,10.0,ENE,6.9,-,N/A,,Clear,70,2013-09-19 17:15:00
1:35 PM,71.8,57.7,61,30.16,10.0,ENE,9.2,-,N/A,,Clear,60,2013-09-19 17:35:00
1:55 PM,72.7,58.1,60,30.15,10.0,ENE,9.2,-,N/A,,Clear,70,2013-09-19 17:55:00
2:15 PM,72.5,57.9,60,30.15,10.0,NE,9.2,-,N/A,,Clear,50,2013-09-19 18:15:00
2:35 PM,72.3,57.9,60,30.14,10.0,East,9.2,-,N/A,,Clear,80,2013-09-19 18:35:00
2:55 PM,72.0,57.7,61,30.14,10.0,ENE,8.1,-,N/A,,Clear,70,2013-09-19 18:55:00
3:15 PM,72.1,57.7,60,30.13,10.0,NE,9.2,-,N/A,,Clear,50,2013-09-19 19:15:00
3:35 PM,72.0,57.6,60,30.12,10.0,ENE,8.1,-,N/A,,Clear,70,2013-09-19 19:35:00
3:55 PM,71.8,57.6,61,30.11,10.0,NE,9.2,-,N/A,,Clear,50,2013-09-19 19:55:00
4:15 PM,71.2,57.6,62,30.11,10.0,NE,9.2,-,N/A,,Clear,50,2013-09-19 20:15:00
4:35 PM,71.6,57.6,61,30.11,10.0,ENE,6.9,-,N/A,,Clear,70,2013-09-19 20:35:00
4:55 PM,71.2,57.4,61,30.11,10.0,NE,6.9,-,N/A,,Clear,50,2013-09-19 20:55:00
5:15 PM,71.1,57.2,61,30.11,10.0,ENE,6.9,-,N/A,,Clear,70,2013-09-19 21:15:00
5:35 PM,70.9,57.2,62,30.11,10.0,NE,6.9,-,N/A,,Clear,50,2013-09-19 21:35:00
5:55 PM,70.2,56.8,63,30.11,10.0,ENE,6.9,-,N/A,,Clear,70,2013-09-19 21:55:00
6:15 PM,69.8,56.8,63,30.11,10.0,ENE,6.9,-,N/A,,Clear,60,2013-09-19 22:15:00
6:35 PM,68.9,56.8,65,30.11,10.0,ENE,5.8,-,N/A,,Clear,70,2013-09-19 22:35:00
6:55 PM,67.3,56.7,69,30.11,10.0,NE,5.8,-,N/A,,Clear,50,2013-09-19 22:55:00
7:15 PM,66.7,57.2,71,30.11,10.0,ENE,5.8,-,N/A,,Clear,70,2013-09-19 23:15:00
7:35 PM,65.8,57.0,73,30.11,10.0,ENE,5.8,-,N/A,,Clear,70,2013-09-19 23:35:00
7:55 PM,66.4,57.4,73,30.11,10.0,East,4.6,-,N/A,,Clear,80,2013-09-19 23:55:00
8:15 PM,65.3,57.0,75,30.12,10.0,ENE,3.5,-,N/A,,Clear,70,2013-09-20 00:15:00
8:35 PM,65.1,57.4,76,30.12,10.0,East,3.5,-,N/A,,Clear,80,2013-09-20 00:35:00
8:55 PM,63.9,57.4,79,30.13,10.0,Calm,Calm,-,N/A,,Clear,0,2013-09-20 00:55:00
9:15 PM,62.2,57.4,84,30.13,10.0,NNE,3.5,-,N/A,,Clear,30,2013-09-20 01:15:00
9:35 PM,61.3,56.8,85,30.13,10.0,NE,3.5,-,N/A,,Clear,50,2013-09-20 01:35:00
9:55 PM,62.6,57.4,83,30.13,10.0,Calm,Calm,-,N/A,,Clear,0,2013-09-20 01:55:00
10:15 PM,62.1,57.4,85,30.13,10.0,Calm,Calm,-,N/A,,Clear,0,2013-09-20 02:15:00
10:35 PM,61.7,56.7,84,30.12,10.0,Calm,Calm,-,N/A,,Clear,0,2013-09-20 02:35:00
10:55 PM,61.5,56.1,82,30.12,10.0,East,3.5,-,N/A,,Clear,80,2013-09-20 02:55:00
11:15 PM,63.0,56.3,79,30.11,10.0,ENE,3.5,-,N/A,,Clear,70,2013-09-20 03:15:00
11:35 PM,61.0,56.3,85,30.11,10.0,East,4.6,-,N/A,,Clear,80,2013-09-20 03:35:00
11:55 PM,62.8,56.5,80,30.10,10.0,East,4.6,-,N/A,,Clear,90,2013-09-20 03:55:00